EW5817 Weather Reports


Display with metric or nautical units.
time (UTC)temp
F
wind
direction
speed
MPH
gust
MPH
rain 1hr
in
rain 24hr
in
rain mn
in
humidity
%
barometer
mb
20260503045907 44 225 9.0 9.0 0.00 0.00 0.00 67 1014.0
20260503045406 44 158 8.0 8.0 0.00 0.00 0.00 67 1013.0
20260503044406 44 158 0.0 11.0 0.00 0.00 0.00 67 1013.0
20260503043906 44 158 5.0 5.0 0.00 0.00 0.00 67 1013.0
20260503043406 44 203 0.0 6.0 0.00 0.00 0.00 67 1013.0
20260503042905 44 248 0.0 7.0 0.00 0.00 0.00 66 1013.0
20260503042406 44 203 2.0 9.0 0.00 0.00 0.00 66 1014.0
20260503041905 44 203 0.0 9.0 0.00 0.00 0.00 66 1014.0
20260503041405 44 203 0.0 9.0 0.00 0.00 0.00 66 1014.0
20260503040905 44 225 8.0 9.0 0.00 0.00 0.00 66 1014.0
20260503040405 44 203 6.0 8.0 0.00 0.00 0.00 65 1014.0
20260503035904 44 158 5.0 9.0 0.00 0.00 0.00 63 1014.0
20260503035404 44 203 4.0 10.0 0.00 0.00 0.00 63 1014.0
20260503034404 43 203 0.0 3.0 0.00 0.00 0.00 62 1014.0
20260503033905 43 158 0.0 11.0 0.00 0.00 0.00 62 1014.0
20260503033404 43 225 1.0 11.0 0.00 0.00 0.00 62 1014.0
20260503032904 42 203 8.0 9.0 0.00 0.00 0.00 65 1014.0
20260503031904 42 203 0.0 7.0 0.00 0.00 0.00 65 1014.0
20260503031403 42 203 0.0 7.0 0.00 0.00 0.00 65 1014.0
20260503030904 41 203 3.0 6.0 0.00 0.00 0.00 65 1015.0
20260503030403 41 203 0.0 6.0 0.00 0.00 0.00 65 1015.0
20260503025403 41 158 0.0 7.0 0.00 0.00 0.00 65 1015.0
20260503024903 41 203 0.0 7.0 0.00 0.00 0.00 65 1015.0
20260503024402 41 203 4.0 4.0 0.00 0.00 0.00 65 1015.0
20260503023902 41 248 0.0 4.0 0.00 0.00 0.00 65 1015.0
20260503023402 41 180 0.0 4.0 0.00 0.00 0.00 65 1015.0
20260503022902 41 225 4.0 5.0 0.00 0.00 0.00 66 1015.0
20260503022402 41 158 0.0 5.0 0.00 0.00 0.00 65 1015.0
20260503021901 41 180 0.0 0.0 0.00 0.00 0.00 65 1015.0
20260503021402 41 180 0.0 0.0 0.00 0.00 0.00 62 1015.0
20260503020901 41 180 0.0 0.0 0.00 0.00 0.00 62 1015.0
20260503020401 41 203 0.0 0.0 0.00 0.00 0.00 62 1015.0
20260503015901 41 158 0.0 0.0 0.00 0.00 0.00 60 1015.0
20260503015401 41 158 0.0 3.0 0.00 0.00 0.00 61 1015.0
20260503014901 42 158 0.0 5.0 0.00 0.00 0.00 60 1015.0
20260503014401 42 158 3.0 5.0 0.00 0.00 0.00 60 1015.0
20260503013900 42 203 0.0 3.0 0.00 0.00 0.00 60 1015.0
20260503013400 42 180 0.0 3.0 0.00 0.00 0.00 60 1015.0
20260503012900 42 203 3.0 11.0 0.00 0.00 0.00 60 1015.0
20260503011900 42 203 10.0 11.0 0.00 0.00 0.00 61 1016.0
20260503011359 42 248 0.0 6.0 0.00 0.00 0.00 62 1016.0
20260503010900 42 248 4.0 10.0 0.00 0.00 0.00 62 1015.0
20260503005900 42 158 0.0 9.0 0.00 0.00 0.00 64 1015.0
20260503005359 42 225 0.0 8.0 0.00 0.00 0.00 64 1015.0
20260503004859 42 248 0.0 8.0 0.00 0.00 0.00 64 1015.0
20260503004359 43 248 4.0 8.0 0.00 0.00 0.00 64 1015.0
20260503003859 43 180 2.0 15.0 0.00 0.00 0.00 62 1015.0
20260503003358 43 248 5.0 15.0 0.00 0.00 0.00 62 1015.0
20260503002859 43 225 5.0 11.0 0.00 0.00 0.00 59 1015.0
20260503002358 44 248 0.0 16.0 0.00 0.00 0.00 57 1015.0
20260503001858 44 203 0.0 16.0 0.00 0.00 0.00 57 1015.0
20260503000858 44 203 0.0 13.0 0.00 0.00 0.00 55 1016.0
20260503000400 44 248 0.0 13.0 0.00 0.00 0.00 54 1016.0
20260502235857 44 203 0.0 8.0 0.00 0.00 0.00 52 1016.0
20260502233857 45 225 13.0 14.0 0.00 0.00 0.00 51 1016.0
20260502233357 46 248 4.0 12.0 0.00 0.00 0.00 51 1016.0
20260502232857 46 248 11.0 13.0 0.00 0.00 0.00 50 1016.0
20260502232356 46 225 0.0 13.0 0.00 0.00 0.00 50 1016.0
20260502231856 47 248 7.0 14.0 0.00 0.00 0.00 50 1016.0
20260502231356 47 180 8.0 14.0 0.00 0.00 0.00 49 1016.0
20260502230856 47 248 4.0 13.0 0.00 0.00 0.00 48 1016.0
20260502225856 47 248 7.0 15.0 0.00 0.00 0.00 48 1016.0
20260502224856 48 203 6.0 11.0 0.00 0.00 0.00 48 1016.0
20260502223856 48 203 3.0 12.0 0.00 0.00 0.00 48 1016.0
20260502223356 48 248 8.0 9.0 0.00 0.00 0.00 48 1016.0
20260502222955 48 180 4.0 15.0 0.00 0.00 0.00 48 1016.0